Regional Weather Roundup
Issued by NWS

Home | Current Version | Previous Version | Text Only | Print | Product List | Glossary Off
Versions: 1 2 3 4 5 6 7 8 9 10 11 12 13 14 15 16 17 18 19 20 21 22 23 24 25 26 27 28 29 30 31 32 33 34 35 36 37 38 39 40 41 42 43 44 45 46 47 48 49 50

000
ASUS43 KDMX 100306
RWRIA

WEATHER ROUNDUP FOR IOWA
NATIONAL WEATHER SERVICE DES MOINES IA
900 PM CST FRI DEC 09 2016

NOTE: "FAIR" INDICATES FEW OR NO CLOUDS BELOW 12,000 FEET WITH NO
SIGNIFICANT WEATHER AND/OR OBSTRUCTIONS TO VISIBILITY.

* - THESE STATIONS ARE NOT NWS STATIONS...THUS NOT UNDER NWS
QUALITY CONTROL.  THEY ALSO DO NOT REPORT WEATHER SUCH
AS PRECIPITATION OR FOG.

IAZ001>003-012>014-020>022-031>034-043>046-100400-
   NORTHWEST IOWA

CITY           SKY/WX    TMP DP  RH WIND       PRES   REMARKS
CARROLL *      CLOUDY    19  10  68 CALM      30.49F
CHEROKEE *     CLOUDY    17  12  81 CALM      30.50R
DENISON *      CLOUDY    19  10  68 CALM      30.47F
LE MARS *      FLURRIES  18  10  73 SW3       30.51S
ORANGE CITY *  LGT SNOW  16  10  79 CALM      30.48R
SHELDON *      FLURRIES  14  12  92 CALM      30.47S
SIOUX CITY     FLURRIES  20  10  65 E3        30.52S
SPENCER        CLOUDY    16  11  80 W9        30.48F WCI   4
STORM LAKE *   CLOUDY    16  10  79 CALM      30.47F
$$

IAZ055>058-069>071-079>083-090>094-100400-
   SOUTHWEST IOWA

CITY           SKY/WX    TMP DP  RH WIND       PRES   REMARKS
ATLANTIC *     CLOUDY    21  14  73 S7        30.49F WCI  13
AUDUBON *      CLOUDY    19  12  73 CALM      30.48F
CLARINDA *     CLOUDY    23  14  68 CALM      30.54F
COUNCIL BLFS * CLOUDY    21  14  73 S6        30.49F WCI  14
CRESTON *      CLOUDY    21  12  68 CALM      30.51F
HARLAN  *      CLOUDY    21  14  73 S6        30.53F WCI  14
LAMONI         CLOUDY    22  12  65 CALM      30.52S
RED OAK *      CLOUDY    23  12  63 CALM      30.51F
SHENANDOAH *   CLOUDY    23  14  68 SE6       30.52F WCI  16
$$

IAZ047>049-059>061-072>074-084-100400-
   CENTRAL IOWA

CITY           SKY/WX    TMP DP  RH WIND       PRES   REMARKS
AMES           CLOUDY    20  14  77 CALM      30.52F
ANKENY *       CLOUDY    21  12  68 CALM      30.54S
BOONE *        CLOUDY    19  12  73 SW5       30.49F WCI  13
CHARITON *     CLOUDY    21  12  68 CALM      30.52F
DES MOINES     CLOUDY    23  12  62 SW6       30.53S WCI  16
GRINNELL*      CLOUDY    20  13  74 W3        30.52F
KNOXVILLE *    CLOUDY    21  10  63 SW5       30.51F WCI  15
MARSHALLTOWN   CLOUDY    19  14  81 SW5       30.51S WCI  12
NEWTON *       CLOUDY    19  12  73 CALM      30.52S
PELLA *        CLOUDY    22  12  66 SW3       30.54F
PERRY *        MOCLDY    21  16  79 CALM      30.52F
$$

IAZ004>006-015-016-023>025-035-036-100400-
   NORTH CENTRAL IOWA

CITY           SKY/WX    TMP DP  RH WIND       PRES   REMARKS
ALGONA *       FLURRIES  19  12  73 NW5       30.47F WCI  13
CLARION *      CLOUDY    19  12  73 W5        30.49F WCI  13
ESTHERVILLE    CLOUDY    15  12  88 NW5       30.47F WCI   8
FORT DODGE *   CLOUDY    19   9  63 CALM      30.50F
MASON CITY     CLOUDY    17  12  80 W7        30.50S HAZE    WCI   8
FOREST CITY *  CLOUDY    18  12  79 W6        30.48S WCI   9
WEBSTER CITY * CLOUDY    19  14  79 SW3       30.48F
IOWA FALLS *   CLOUDY    20  14  76 W6        30.51S WCI  13
$$

IAZ007>011-017>019-026>030-037>042-050>054-066-100400-
   NORTHEAST IOWA

CITY           SKY/WX    TMP DP  RH WIND       PRES   REMARKS
CEDAR RAPIDS   MOCLDY    17  14  88 CALM      30.52S
CHARLES CITY * FLURRIES  18  14  86 W5        30.49S WCI  11
CLINTON *      CLOUDY    19  15  84 W7        30.53F WCI  10
DECORAH *      FLURRIES  16  12  86 W3        30.47S
DUBUQUE        MOCLDY    14  10  84 W6        30.50S WCI   5
MONTICELLO *   CLOUDY    18  12  79 CALM      30.51F
OELWEIN *      CLOUDY    16  14  93 SW5       30.50S WCI   9
WATERLOO       CLOUDY    20  12  71 SW6       30.51F WCI  12
$$

IAZ064-065-067-068-078-100400-
   EAST CENTRAL IOWA

CITY           SKY/WX    TMP DP  RH WIND       PRES   REMARKS
DAVENPORT      CLOUDY    19  12  74 W7        30.53F WCI  10
IOWA CITY      CLOUDY    19  13  77 W3        30.56F
MUSCATINE *    CLOUDY    21  14  73 CALM      30.56S
QUAD CITIES    PTCLDY    20  13  74 SW3       30.54F
$$

IAZ062-063-075>077-085>089-095>099-100400-
   SOUTHEAST IOWA

CITY           SKY/WX    TMP DP  RH WIND       PRES   REMARKS
BURLINGTON     CLOUDY    20  14  77 W3        30.55F
FAIRFIELD *    CLOUDY    21  12  68 CALM      30.54S
FORT MADISON * CLOUDY    21  14  73 CALM      30.56F
KEOKUK *       CLOUDY    23  16  74 CALM      30.55F
OSKALOOSA *    CLOUDY    20  14  79 CALM      30.53F
CENTERVILLE *  CLOUDY    23  14  68 CALM      30.54S
OTTUMWA        CLOUDY    21  12  68 CALM      30.53F
WASHINGTON *   CLOUDY    21  14  73 W5        30.55F WCI  15
$$

ABBREVIATIONS USED IN REMARKS
   TC - TEMPERATURES IN CELSIUS
  WCI - WIND CHILL INDEX
   HX - HEAT INDEX
  VSB - VISIBILITY
$$





USA.gov is the U.S. government's official web portal to all federal, state and local government web resources and services.